Backing Top 3 Rated Cherry Picks Selections With Big Odds To Win Over The Last 20 Days Has Returned A Profit Of 158.29 Points After Betfair Commission

Backing every top 3 rated Cherry Picks selection with Betfair odds of 11 or more at 1 minute before the off has returned a profit of 158.29 points after Betfair commission over the last 20 days (based on Betfair SPs).

By the top 3 rated Cherry Picks selections, we mean the 3 at the top of the list for each race (those with the highest 3 positive ratings). If one of the top 3 rated selections is a non-runner, the next participating horse down the ratings list replaces it.

The 1 minute prices are from JustStartHere (where you can also access the ratings 7 days a week).


Full Results:

Date Race   Horse 1 min Price Result Win Return Place Return
01/09/2012 14:15 Sandown Rowe Park 40.00 L -1.00 -1.00
14:30 Chester Meganisi 30.00 L -1.00 -1.00
14:30 Chester Midsummer Sun 15.50 L -1.00 -1.00
14:45 Killarney Wonderful 11.00 L -1.00 -1.00
15:05 Chester Powerful Presence 21.00 L -1.00 -1.00
15:25 Sandown Clinical 12.50 L -1.00 -1.00
16:20 Chester Mayoman 20.00 P -1.00 +6.27
16:20 Chester Ballista 18.50 W +17.36 +3.33
16:25 Killarney Frontier 11.50 L -1.00 -1.00
17:00 Killarney Thomas Edison 19.50 L -1.00 -1.00
17:00 Killarney Rattan 11.50 P -1.00 +1.33
17:10 Bath Knocker Knowles 30.00 L -1.00 -1.00
17:30 Chester Baltic Bomber 23.00 L -1.00 -1.00
17:55 Market Rasen Call At Midnight 29.00 L -1.00 -1.00
17:55 Market Rasen Itzacliche 27.00 L -1.00 -1.00
18:10 Bath Oasis Dancer 16.00 L -1.00 -1.00
18:25 Market Rasen Kai Broon 13.00 P -1.00 +2.28
18:55 Market Rasen Claude Carter 13.00 W +10.62 +2.09
19:10 Bath Sula Two 11.50 P -1.00 +1.75
01/09/2012: +10.98 +4.04
02/09/2012 14:00 Folkestone Pindrop 36.00 L -1.00 -1.00
15:10 Newton Abbot Monetary Fund 20.00 P -1.00 +3.29
15:10 Newton Abbot Premier Dane 16.50 W +16.71 +3.33
15:30 Folkestone Silkee Supreme 19.00 L -1.00 -1.00
15:30 Folkestone Bavarian Princess 17.50 L -1.00 -1.00
15:40 Newton Abbot Idarah 50.00 P -1.00 +7.60
15:40 Newton Abbot Nobunaga 20.00 L -1.00 -1.00
16:10 Newton Abbot Orion Express 14.00 L -1.00 -1.00
17:00 Folkestone Estrela 12.50 L -1.00 -1.00
17:10 Newton Abbot Ethiopia 14.50 L -1.00 -1.00
17:50 Dundalk Shake The Bucket 28.00 L -1.00 -1.00
17:50 Dundalk Force Of Habit 18.50 L -1.00 -1.00
02/09/2012: +5.71 +5.21
03/09/2012 15:30 Wolverhampton Hikma 18.00 L -1.00 -1.00
15:30 Wolverhampton Ajeeb 11.50 P -1.00 +2.80
16:30 Wolverhampton Cheektocheek 21.00 L -1.00 -1.00
16:50 Ffos Las Sparking 12.00 L -1.00 -1.00
18:00 Wolverhampton One For Joules 14.50 L -1.00 -1.00
03/09/2012: -5.00 -1.20
04/09/2012 14:00 Leicester Excel Yourself 15.50 W +17.15 +4.75
14:10 Musselburgh Glenluji 15.00 L -1.00 -1.00
14:30 Leicester Konstantin 16.50 P -1.00 +2.06
14:40 Musselburgh Lets Face Facts 13.00 L -1.00 -1.00
14:40 Musselburgh Goninodaethat 11.00 P -1.00 +2.58
15:20 Killarney Sulwaan 16.50 L -1.00 -1.00
15:30 Goodwood Cardmaster 22.00 L -1.00 -1.00
16:40 Goodwood Seaside Sizzler 12.00 L -1.00 -1.00
16:50 Leicester Chosen Character 11.00 P -1.00 +1.81
17:00 Musselburgh Shisha Threesixty 29.00 L -1.00 -1.00
17:20 Leicester Dark Falcon 20.00 L -1.00 -1.00
17:35 Musselburgh Bang Tidy 30.00 L -1.00 -1.00
04/09/2012: +6.15 +3.21
05/09/2012 14:00 Lingfield Pira Palace 22.00 L -1.00 -1.00
14:00 Lingfield Danz Choice 12.00 P -1.00 +3.22
14:00 Lingfield Bornean 12.00 L -1.00 -1.00
14:20 Bath Junior Diary 19.50 L -1.00 -1.00
15:20 Bath Dark Lane 16.50 L -1.00 -1.00
16:35 Gowran Park Ballyorban 13.50 P -1.00 +2.86
16:50 Bath Volcanic Jack 13.00 L -1.00 -1.00
17:10 Hereford Tempting Paradise 12.00 L -1.00 -1.00
18:10 Gowran Park Tugboat 16.00 L -1.00 -1.00
18:10 Gowran Park Barrow Island 15.50 L -1.00 -1.00
18:30 Kempton Windforpower 17.00 L -1.00 -1.00
20:30 Kempton Albert Bridge 14.00 L -1.00 -1.00
20:30 Kempton Kuda Huraa 12.00 P -1.00 +2.85
21:00 Kempton Al Qatari 11.50 L -1.00 -1.00
05/09/2012: -14.00 -2.07
06/09/2012 15:25 Sedgefield City Ground 13.50 L -1.00 -1.00
15:25 Sedgefield Authentic Act 11.00 L -1.00 -1.00
15:35 Haydock Justineo 23.00 L -1.00 -1.00
15:45 Salisbury Free Verse 13.00 P -1.00 +2.57
15:45 Salisbury Fillionaire 12.00 L -1.00 -1.00
16:10 Haydock Lastofthemohicans 12.50 L -1.00 -1.00
17:00 Sedgefield Folie A Deux 14.50 L -1.00 -1.00
17:20 Salisbury Netley Marsh 28.00 L -1.00 -1.00
17:30 Sedgefield Urban Kode 11.50 L -1.00 -1.00
19:10 Kempton Perlachy 15.00 L -1.00 -1.00
19:40 Kempton Jack Smudge 16.50 L -1.00 -1.00
21:10 Kempton Crown Dependency 46.00 L -1.00 -1.00
06/09/2012: -12.00 -8.44
07/09/2012 14:00 Haydock Bop It 13.50 P -1.00 +2.71
14:10 Brighton Panettone 15.00 W +11.40 +2.94
14:30 Haydock Lost In Paris 11.00 L -1.00 -1.00
14:40 Brighton Dazzling Valentine 12.50 W +12.32 +2.52
15:15 Brighton Always Eager 17.00 L -1.00 -1.00
15:15 Brighton Smart Affair 14.50 L -1.00 -1.00
15:35 Haydock Caranbola 17.00 L -1.00 -1.00
15:35 Haydock Roker Park 16.00 L -1.00 -1.00
15:35 Haydock Julius Geezer 12.00 L -1.00 -1.00
15:55 Chepstow Memphis Man 18.00 L -1.00 -1.00
16:20 Brighton Efistorm 19.00 L -1.00 -1.00
16:45 Haydock Madam Macie 38.00 L -1.00 -1.00
16:55 Brighton Lana 25.00 W +19.28 +4.43
17:05 Chepstow Forty Proof 25.00 L -1.00 -1.00
17:05 Chepstow Hatta Stream 11.00 P -1.00 +1.50
17:15 Haydock Zacynthus 11.00 W +6.08 +1.93
17:25 Brighton Scommettitrice 17.50 L -1.00 -1.00
17:35 Chepstow Copper Falls 27.00 L -1.00 -1.00
17:55 Brighton Baby Driver 16.50 L -1.00 -1.00
18:05 Chepstow Pandorica 15.00 P -1.00 +2.95
18:20 Kempton Forgive 11.00 W +7.66 +1.28
19:10 Kilbeggan Granaruid 13.00 L -1.00 -1.00
19:10 Kilbeggan Liberty Counsel 11.50 W +8.55 +2.47
19:50 Kempton Palladius 15.00 L -1.00 -1.00
20:50 Kempton Sandusky 21.00 L -1.00 -1.00
07/09/2012: +46.28 +6.71
08/09/2012 14:05 Stratford Princely Hero 28.00 W +25.17 +3.06
14:35 Ascot Royal Aspiration 11.00 L -1.00 -1.00
14:35 Ascot Foxy Forever 11.00 L -1.00 -1.00
15:05 Kempton Double Dealer 19.00 L -1.00 -1.00
15:05 Kempton Maverik 11.50 L -1.00 -1.00
15:30 Thirsk Pick A Little 26.00 L -1.00 -1.00
15:30 Thirsk Expose 25.00 L -1.00 -1.00
15:45 Ascot Memory Cloth 30.00 L -1.00 -1.00
16:05 Thirsk Tappanappa 11.00 L -1.00 -1.00
16:10 Kempton Glass Office 16.50 W +21.54 +5.93
16:15 Ascot Opinion 30.00 L -1.00 -1.00
16:15 Ascot Hajras 11.50 L -1.00 -1.00
16:55 Stratford Marchand DArgent 14.50 L -1.00 -1.00
16:55 Stratford Tri Nations 14.50 P -1.00 +2.55
17:05 Haydock Courtesy Call 24.00 W +20.90 +3.56
17:10 Thirsk Steel Stockholder 13.50 L -1.00 -1.00
17:20 Kempton Idler 12.00 W +9.82 +1.87
18:00 Wolverhampton Marford Missile 14.00 P -1.00 +4.37
18:00 Wolverhampton Justbookie Dot Com 11.00 L -1.00 -1.00
19:00 Wolverhampton Chjimes 38.00 L -1.00 -1.00
19:20 Leopardstown I Have A Dream 11.50 W +10.45 +2.65
20:30 Wolverhampton Langley 17.50 P -1.00 +3.96
21:00 Wolverhampton Silken Satinwood 21.00 L -1.00 -1.00
21:00 Wolverhampton Wind Star 14.00 L -1.00 -1.00
08/09/2012: +68.88 +11.95
09/09/2012 13:50 York Asgardella 12.50 P -1.00 +2.95
14:55 York Inxile 12.50 L -1.00 -1.00
15:30 York Christmas Light 19.00 P -1.00 +3.30
15:30 York Double Cee 13.00 L -1.00 -1.00
16:00 York Odins Raven 11.50 L -1.00 -1.00
16:35 York Hurry Up George 60.00 L -1.00 -1.00
16:35 York Hamza 12.50 P -1.00 +2.42
16:55 Curragh Storm Lightning 32.00 P -1.00 +5.08
16:55 Curragh Collingwood 19.00 L -1.00 -1.00
17:05 York Standpoint 12.50 P -1.00 +1.82
17:05 York St Ignatius 12.00 L -1.00 -1.00
17:15 Fontwell Midnight Gold 11.00 L -1.00 -1.00
17:25 Curragh Rare Symphony 25.00 L -1.00 -1.00
09/09/2012: -13.00 +7.57
10/09/2012 14:20 Bath Brief Chat 24.00 L -1.00 -1.00
15:10 Newton Abbot Intac 18.50 L -1.00 -1.00
15:10 Newton Abbot Dom DOrgeval 16.00 L -1.00 -1.00
15:20 Bath Night Trade 11.50 L -1.00 -1.00
15:40 Newton Abbot Rime Avec Gentil 24.00 W +19.95 +3.71
16:00 Newcastle Scarlet Prince 14.00 W +12.26 +2.88
16:10 Newton Abbot Businessmoney Judi 11.50 L -1.00 -1.00
16:30 Newcastle Noble Bounty 28.00 L -1.00 -1.00
16:30 Newcastle Majestic Breeze 16.00 L -1.00 -1.00
16:40 Newton Abbot Blue Hills 15.50 P -1.00 +1.88
17:00 Newcastle Oakbrook 19.00 L -1.00 -1.00
17:30 Newcastle Windygoul Lad 21.00 L -1.00 -1.00
17:30 Newcastle Music Festival 14.00 L -1.00 -1.00
18:35 Galway Leyland 16.50 W +26.14 +5.32
10/09/2012: +47.35 +3.78
11/09/2012 14:10 Worcester Cap Elorn 26.00 L -1.00 -1.00
14:30 Redcar Miss Perfect 15.00 L -1.00 -1.00
14:40 Worcester Marked Man 28.00 L -1.00 -1.00
14:40 Worcester Lord Lescribaa 12.00 L -1.00 -1.00
15:30 Redcar Indian Trail 34.00 L -1.00 -1.00
15:30 Redcar Midnight Dynamo 16.50 W +16.82 +1.96
16:00 Redcar Rio Grande 55.00 P -1.00 +12.88
16:00 Redcar Musnad 30.00 L -1.00 -1.00
16:50 Leicester Kingscroft 26.00 L -1.00 -1.00
17:00 Redcar Seagoing 22.00 L -1.00 -1.00
17:00 Redcar Little Red Minx 15.00 L -1.00 -1.00
17:30 Redcar Mujaadel 13.00 L -1.00 -1.00
17:40 Worcester Woodlark Island 19.00 L -1.00 -1.00
11/09/2012: +4.82 +3.84
12/09/2012 15:05 Doncaster Pabusar 12.00 L -1.00 -1.00
15:15 Uttoxeter Sunday City 22.00 L -1.00 -1.00
15:40 Doncaster Chookie Avon 21.00 L -1.00 -1.00
15:40 Doncaster Gunner Will 18.00 L -1.00 -1.00
15:50 Uttoxeter Quiet Whisper 46.00 L -1.00 -1.00
15:50 Uttoxeter Miracle House 12.00 L -1.00 -1.00
16:45 Doncaster Gold City 20.00 P -1.00 +5.75
16:45 Doncaster Compton 14.50 L -1.00 -1.00
16:55 Uttoxeter Salpierre 30.00 L -1.00 -1.00
17:00 Galway Anshan Dreams 22.00 W +14.25 +4.28
17:15 Doncaster Powerful Wind 85.00 L -1.00 -1.00
17:15 Doncaster Flash City 13.00 L -1.00 -1.00
17:45 Kempton Sunshine Always 11.00 P -1.00 +2.09
18:05 Galway Darenjan 12.50 P -1.00 +4.09
18:15 Kempton Napoleons Muse 13.50 L -1.00 -1.00
18:15 Kempton Openly 11.00 P -1.00 +1.87
18:45 Kempton Tough Lady 21.00 L -1.00 -1.00
20:45 Kempton Tweet Lady 34.00 L -1.00 -1.00
21:15 Kempton Sweet Mystery 70.00 L -1.00 -1.00
21:15 Kempton More Than Words 16.00 P -1.00 +3.67
12/09/2012: -4.75 +7.74
13/09/2012 13:15 Doncaster Tussie Mussie 15.50 L -1.00 -1.00
13:15 Doncaster Jamesbos Girl 11.00 W +8.19 +1.77
13:50 Doncaster Libys Dream 34.00 L -1.00 -1.00
13:50 Doncaster Radio Gaga 16.00 L -1.00 -1.00
15:05 Epsom Eternal Gift 19.00 L -1.00 -1.00
15:40 Epsom Sula Two 19.00 P -1.00 +4.75
15:55 Chepstow Warrant Officer 30.00 L -1.00 -1.00
15:55 Chepstow Ottauquechee 26.00 L -1.00 -1.00
16:05 Doncaster Seeking Magic 11.00 L -1.00 -1.00
16:15 Epsom Stonecrabstomorrow 19.00 P -1.00 +3.84
17:00 Chepstow Memphis Man 34.00 L -1.00 -1.00
17:15 Epsom Represent 12.00 L -1.00 -1.00
17:45 Wolverhampton Gabrials Lexi 19.50 L -1.00 -1.00
18:10 Laytown Core Element 28.00 P -1.00 +5.52
18:50 Wolverhampton Jeannie Galloway 11.00 L -1.00 -1.00
19:50 Wolverhampton Lana 15.00 L -1.00 -1.00
20:20 Wolverhampton Poseidon Grey 24.00 L -1.00 -1.00
20:50 Wolverhampton Uncle Timmy 11.00 L -1.00 -1.00
21:20 Wolverhampton Superciliary 18.50 L -1.00 -1.00
13/09/2012: -9.81 +0.87
14/09/2012 13:50 Doncaster Old Hundred 20.00 L -1.00 -1.00
14:10 Chester Jubilee Games 11.00 P -1.00 +2.25
15:05 Sandown Gaul Wood 13.50 W +14.67 +2.57
15:05 Sandown Zaeem 12.00 L -1.00 -1.00
15:20 Chester Trovare 21.00 L -1.00 -1.00
15:40 Sandown Aquilonius 12.00 L -1.00 -1.00
16:05 Doncaster Rassam 20.00 L -1.00 -1.00
16:15 Sandown Sinfonico 24.00 L -1.00 -1.00
16:25 Chester Cottesmore 14.50 L -1.00 -1.00
16:35 Doncaster Haylaman 11.00 L -1.00 -1.00
17:00 Chester Boudoir 13.50 L -1.00 -1.00
17:05 Down Royal Clancy Avenue 15.00 P -1.00 +5.13
17:15 Sandown Uncle Fred 18.50 L -1.00 -1.00
17:30 Chester Aquasulis 20.00 L -1.00 -1.00
17:40 Wolverhampton Lady Mandy 11.50 L -1.00 -1.00
18:15 Wolverhampton Gin Twist 21.00 L -1.00 -1.00
18:35 Down Royal Jigalo 14.00 L -1.00 -1.00
18:35 Down Royal Roja Dove 12.50 P -1.00 +2.66
20:45 Wolverhampton Moody Dancer 29.00 L -1.00 -1.00
20:45 Wolverhampton Untold Melody 15.50 L -1.00 -1.00
21:15 Wolverhampton July Days 17.50 L -1.00 -1.00
21:15 Wolverhampton Indieslad 12.00 L -1.00 -1.00
14/09/2012: -6.33 -5.39
15/09/2012 13:40 Chester Hamoody 25.00 L -1.00 -1.00
13:40 Chester Waseem Faris 13.00 L -1.00 -1.00
13:50 Doncaster St Moritz 14.00 L -1.00 -1.00
14:00 Newcastle Glenluji 38.00 L -1.00 -1.00
14:10 Chester Venutius 15.00 L -1.00 -1.00
14:10 Chester Kingscroft 11.50 L -1.00 -1.00
14:10 Chester Chosen Character 11.00 W +9.50 +1.48
14:35 Newcastle Roll Of Thunder 48.00 L -1.00 -1.00
14:35 Newcastle Seldom 16.50 P -1.00 +2.23
14:40 Chester Good Morning Star 11.00 L -1.00 -1.00
15:00 Doncaster Tax Free 24.00 L -1.00 -1.00
15:00 Doncaster Steps 15.00 L -1.00 -1.00
15:10 Newcastle Zomerlust 18.00 P -1.00 +3.33
15:10 Newcastle Nasharra 12.50 L -1.00 -1.00
15:30 Bath Bollin Dolly 29.00 L -1.00 -1.00
15:40 Doncaster Main Sequence 18.50 L -1.00 -1.00
15:40 Doncaster Thought Worthy 17.00 L -1.00 -1.00
15:50 Newcastle Daunt 23.00 L -1.00 -1.00
16:05 Bath Sir Lexington 50.00 L -1.00 -1.00
16:05 Bath Naledi 13.50 L -1.00 -1.00
16:15 Doncaster Libranno 27.00 W +22.84 +3.71
16:25 Newcastle Military Call 14.00 L -1.00 -1.00
16:30 Chester Rossetti 11.00 P -1.00 +2.95
16:30 Chester Early Applause 11.00 L -1.00 -1.00
16:40 Bath Gallego 19.50 L -1.00 -1.00
16:40 Bath Surprise Us 12.00 L -1.00 -1.00
16:50 Doncaster Rising Legend 11.00 W +8.29 +1.55
17:00 Curragh Smithfield 12.50 L -1.00 -1.00
17:05 Chester Sir Fredlot 12.00 L -1.00 -1.00
17:10 Bath Bazart 17.50 L -1.00 -1.00
17:20 Doncaster Incendo 19.00 L -1.00 -1.00
17:20 Doncaster Scatter Dice 16.00 L -1.00 -1.00
17:20 Doncaster Dreamspeed 12.50 L -1.00 -1.00
17:25 Newcastle Meccas Team 16.00 L -1.00 -1.00
17:25 Newcastle Alnair 12.50 L -1.00 -1.00
17:30 Curragh Nini Ok 14.50 L -1.00 -1.00
17:50 Kempton Cincinnati Kit 16.00 L -1.00 -1.00
18:20 Kempton Operettist 15.00 L -1.00 -1.00
19:20 Kempton Mulberry Brite 46.00 L -1.00 -1.00
19:20 Kempton Beat Up 11.50 L -1.00 -1.00
20:50 Kempton Benartic 60.00 P -1.00 +9.94
20:50 Kempton Baan 13.50 L -1.00 -1.00
21:20 Kempton Elsies Orphan 26.00 L -1.00 -1.00
21:20 Kempton Avonmore Star 14.50 L -1.00 -1.00
15/09/2012: -0.37 -11.83
16/09/2012 14:10 Bath True Prince 25.00 W +23.42 +5.27
15:30 Ffos Las Bridge Night 14.50 L -1.00 -1.00
15:40 Bath Perlachy 40.00 L -1.00 -1.00
15:50 Listowel Galianna 19.00 W +17.10 +3.33
15:50 Listowel The Colleen Ban 15.00 L -1.00 -1.00
16:30 Ffos Las Sugar Beet 16.00 L -1.00 -1.00
16:50 Listowel Any Bets 16.00 L -1.00 -1.00
17:30 Ffos Las Red Rhythm 12.00 L -1.00 -1.00
16/09/2012: +34.52 +2.60
17/09/2012 14:00 Wolverhampton Smart Affair 11.00 P -1.00 +1.81
14:50 Brighton Phluke 18.50 L -1.00 -1.00
15:00 Wolverhampton Keep Calm 16.00 L -1.00 -1.00
15:20 Brighton Interakt 12.00 L -1.00 -1.00
15:30 Wolverhampton Jumeirah Palm Star 17.00 L -1.00 -1.00
15:35 Listowel Blue Mimosa 17.00 L -1.00 -1.00
15:35 Listowel Tamam Namoose 17.00 L -1.00 -1.00
15:50 Brighton Goodwood Starlight 23.00 L -1.00 -1.00
16:10 Musselburgh Done Dreaming 12.00 L -1.00 -1.00
17:00 Wolverhampton Simple Rhythm 46.00 L -1.00 -1.00
17:00 Wolverhampton Cheery Cat 18.50 L -1.00 -1.00
17:10 Musselburgh Nickel Silver 18.00 L -1.00 -1.00
17/09/2012: -12.00 -9.20
18/09/2012 15:00 Yarmouth A Certain Romance 12.50 L -1.00 -1.00
15:10 Thirsk Panama Cat 18.50 L -1.00 -1.00
15:40 Thirsk Fieldgunner Kirkup 16.50 W +17.24 +2.52
15:40 Thirsk Mon Brav 13.00 L -1.00 -1.00
16:10 Thirsk Tricksofthetrade 34.00 L -1.00 -1.00
16:20 Folkestone Belle Intrigue 19.00 L -1.00 -1.00
16:30 Yarmouth Expose 14.50 L -1.00 -1.00
16:35 Listowel Leroy Parker 26.00 L -1.00 -1.00
17:40 Thirsk Availed Speaker 20.00 L -1.00 -1.00
17:40 Thirsk Multi Bene 11.00 W +5.70 +1.22
18/09/2012: +14.94 -4.27
19/09/2012 14:00 Beverley Chloes Dream 11.00 W +11.32 +3.39
14:20 Sandown Triple Dream 34.00 L -1.00 -1.00
15:40 Beverley Elusive Bonus 19.00 L -1.00 -1.00
16:05 Listowel Fosters Cross 20.00 L -1.00 -1.00
16:05 Listowel Themoonandsixpence 16.00 L -1.00 -1.00
16:35 Sandown Kahruman 12.00 L -1.00 -1.00
17:05 Sandown Al Mahmeyah 32.00 L -1.00 -1.00
17:35 Sandown Al Wajba 27.00 L -1.00 -1.00
17:35 Sandown Pilgrims Rest 11.00 P -1.00 +2.45
18:45 Kempton Eltiqaa 12.50 L -1.00 -1.00
18:45 Kempton Joyful Spirit 11.50 W +10.61 +2.84
19:15 Kempton Bramshill Lass 14.00 P -1.00 +2.43
19/09/2012: +11.94 +3.12
20/09/2012 14:30 Pontefract Bartley 13.00 L -1.00 -1.00
15:05 Listowel Angel Bright 11.00 L -1.00 -1.00
15:30 Pontefract Fastnet Storm 20.00 P -1.00 +4.54
15:30 Pontefract Eraada 19.50 L -1.00 -1.00
15:35 Listowel Whatuthink 12.00 L -1.00 -1.00
16:00 Pontefract Pearl Diva 16.50 L -1.00 -1.00
16:35 Listowel Osirixamix 34.00 L -1.00 -1.00
16:35 Listowel Thomas Edison 17.50 L -1.00 -1.00
16:50 Yarmouth Ukrainian Princess 30.00 L -1.00 -1.00
16:50 Yarmouth Dutch Diamond 11.00 L -1.00 -1.00
17:05 Listowel Bundle Of Fun 15.50 L -1.00 -1.00
17:05 Listowel Caim Hill 11.00 L -1.00 -1.00
18:00 Pontefract Laylas King 21.00 L -1.00 -1.00
18:00 Pontefract Elijah Pepper 11.50 L -1.00 -1.00
18:10 Kempton Maligned 17.50 L -1.00 -1.00
20:10 Kempton Burj Alzain 21.00 P -1.00 +3.60
20/09/2012: -16.00 -5.86
Total: +158.29 +12.40

In total there were 326 selections, 31 of which went on to win (10%) and 78 went on to place (24%). The average 1 minute price was 19.00 and the return on investment for backing the selections to win was 49%.

Access the Cherry Picks ratings 7 days a week by signing up to JustStartHere. It only costs £6 per month and you can cancel or reactivate your subscription at any time direct from your PayPal account:

Sign Up

Comments

comments

2 thoughts on “Backing Top 3 Rated Cherry Picks Selections With Big Odds To Win Over The Last 20 Days Has Returned A Profit Of 158.29 Points After Betfair Commission

  1. Pingback: Horse Racing Tips - Leicester, Redcar, Naas, Bangor & Galway | Cherry Bets

  2. Pingback: Big Priced Horse Racing Winners & Good Dutching Returns | Cherry Bets

Comments are closed.